Showing default

ANIK G1, 39127

Orbit data source: Space-Track

ANIK G1, 39127 is a payload satellite owned by Telesat (Loral) (CA) in GEO that was launched on Mon, 15 Apr 2013 UTC via a PROTON-M/BRIZ-M launch vehicle from the Tyuratam Missile And Space Complex (TTMTR). Payload-class satellites include a variety of spacecraft equipped with specific instruments for various scientific and technological missions. These include communications satellites like Starlink; space stations such as the ISS; scientific satellites like the Hubble; Earth observation satellites from companies like Planet Labs, Umbra, and HawkEye 360; GPS; miniature CubeSats for education and research; and military/defense satellites.

Loading next visibility...
Identifier
39127, 2013-014A
Orbit
GEO
Country
Flag of CACA
Related business
Manufacturer
SS/Loral (MDA)
Mission
Operational Commercial Communications
Bus & Motor
SSL-1300, R-4D-15?
Mass
4,905 kg wet, ~2,500 kg dry
Launch date (UTC)
2013-04-15 (13 years ago)
Launch vehicle
PROTON-M/BRIZ-M
Launch site
Tyuratam Missile And Space Complex (TTMTR)
Object type
Payload
Rocket body
Debris
Shape & HBR
Box + 2 Pan, 15.0 m
Radar Cross Section
50.206 m², Large (>1 m²)

Expand to show TLE details & history
Last TLE update: 9 hours ago

TLE from 9 hours ago
0 ANIK G1
1 39127U 13014A   25307.80738538 -.00000061  00000-0  00000+0 0  9997
2 39127   0.0064 263.5673 0003977 342.2050 340.9331  1.00271677 45999
Epoch: 2025-11-03T19:22Z
TLE epoch observation values (Epoch: 2025-11-03T19:22:38.096Z)
Latitude
-0.01592°
Longitude
-107.3115°
Altitude
35,770.208 km
Speed
3.076 km/s
True Right ascension
15h 06m 36s
True Declination
0° 00' 57"
Sunlit
Object was in daylight at epoch
Visualization orbit readout
Latitude
Unknown
Longitude
Unknown
Altitude
Unknown
Speed
Unknown
Apparent Right ascension
Unknown
Apparent Declination
Unknown
Sunlit
N/A
Visualization observer readout
Local Sidereal Time
00:14:00
Azimuth
Unknown
Elevation
Unknown
Doppler factor
Unknown
Orbital elements
Apogee altitude
35,804.465 km
Perigee altitude
35,770.926 km
Semi-major axis
42,165.833 km
Eccentricity
0.0004
Inclination
0.0064°
RAAN
263.5673°
Arg. of periapsis
342.205°
True anomaly
340.91821°
Mean anomaly
340.9331°
Eccentric anomaly
340.92565°
Mean motion
0.25067 °/min
Orbital period
1,436.15 mins
BSTAR
0
Loading maneuver chart data...
Computing Atmospheric mass density...
Loading historical data...
Loading historical data...
Loading historical data...
Loading historical data...
Loading historical data...
Loading historical data...
Loading historical data...
Other satellites on launch #14 in the year 2013 (2013-04-15 UTC)

Documentation

Showing up to 5 results
|